QPF
0.00 0.00 0.00 0.00 0.00 0.00 0.00 0.00 0.00 0.00 0.00 0.01 0.01 0.02 0.03 0.04 0.03 0.02 0.02 0.01 0.01 0.01 0.01 0.01 0.01 0.01 0.01 0.01 0.01 0.00 0.00 0.00 0.00 0.00 0.00 0.00 0.00 0.00 0.00 0.00 0.00 0.00 0.00 0.00 0.00 0.01 0.01 0.01 0.01
0.00 0.00 0.00 0.00 0.00 0.00 0.00 0.01 0.01 0.01 0.01 0.01 0.02 0.02 0.02 0.03 0.03 0.04 0.02 0.02 0.01 0.01 0.01 0.01 0.01 0.01 0.01 0.01 0.01 0.00 0.00 0.00 0.00 0.00 0.00 0.00 0.00 0.00 0.00 0.00 0.00 0.00 0.00 0.01 0.01 0.01 0.01 0.01 0.01
0.00 0.00 0.00 0.00 0.00 0.00 0.01 0.02 0.02 0.02 0.02 0.01 0.02 0.02 0.03 0.03 0.03 0.02 0.04 0.07 0.04 0.02 0.01 0.01 0.01 0.00 0.00 0.00 0.00 0.00 0.00 0.00 0.00 0.00 0.00 0.00 0.00 0.00 0.00 0.00 0.01 0.01 0.01 0.01 0.01 0.01 0.01 0.01 0.01
0.00 0.00 0.00 0.00 0.00 0.00 0.00 0.02 0.02 0.02 0.02 0.01 0.01 0.02 0.02 0.02 0.02 0.03 0.07 0.11 0.06 0.03 0.01 0.01 0.01 0.00 0.00 0.00 0.00 0.01 0.00 0.00 0.00 0.00 0.01 0.01 0.01 0.01 0.01 0.01 0.01 0.01 0.01 0.01 0.01 0.01 0.01 0.01 0.01
0.00 0.00 0.00 0.01 0.00 0.00 0.00 0.02 0.03 0.03 0.01 0.01 0.01 0.01 0.01 0.02 0.02 0.02 0.03 0.04 0.03 0.02 0.02 0.01 0.01 0.01 0.01 0.01 0.01 0.01 0.01 0.01 0.01 0.01 0.01 0.01 0.01 0.01 0.01 0.02 0.02 0.02 0.02 0.02 0.02 0.01 0.02 0.02 0.01
0.00 0.00 0.00 0.01 0.00 0.00 0.01 0.01 0.02 0.03 0.01 0.01 0.00 0.01 0.01 0.01 0.01 0.03 0.03 0.02 0.02 0.02 0.02 0.01 0.01 0.02 0.02 0.01 0.01 0.01 0.01 0.01 0.02 0.02 0.01 0.02 0.02 0.02 0.02 0.03 0.04 0.04 0.04 0.03 0.03 0.03 0.03 0.03 0.02
0.00 0.00 0.00 0.01 0.01 0.01 0.01 0.01 0.04 0.03 0.02 0.01 0.00 0.00 0.01 0.01 0.01 0.01 0.01 0.02 0.02 0.04 0.06 0.03 0.02 0.02 0.02 0.03 0.03 0.03 0.03 0.03 0.03 0.03 0.02 0.03 0.03 0.03 0.04 0.05 0.05 0.05 0.04 0.04 0.04 0.04 0.04 0.04 0.04
0.00 0.00 0.00 0.00 0.00 0.01 0.01 0.01 0.02 0.02 0.02 0.01 0.00 0.01 0.01 0.01 0.00 0.01 0.02 0.03 0.03 0.06 0.07 0.04 0.02 0.02 0.02 0.02 0.04 0.06 0.06 0.05 0.04 0.03 0.03 0.03 0.04 0.05 0.07 0.09 0.09 0.07 0.06 0.05 0.05 0.06 0.06 0.06 0.06
0.00 0.00 0.00 0.00 0.00 0.01 0.01 0.01 0.02 0.02 0.01 0.01 0.00 0.01 0.01 0.01 0.01 0.01 0.02 0.03 0.03 0.04 0.05 0.04 0.03 0.03 0.03 0.03 0.05 0.07 0.08 0.05 0.03 0.02 0.03 0.04 0.06 0.07 0.09 0.08 0.07 0.06 0.07 0.09 0.10 0.09 0.09 0.09 0.08
0.00 0.00 0.00 0.00 0.00 0.00 0.01 0.01 0.02 0.02 0.01 0.01 0.00 0.01 0.01 0.01 0.01 0.01 0.01 0.01 0.02 0.03 0.04 0.04 0.04 0.03 0.03 0.03 0.05 0.07 0.07 0.05 0.03 0.02 0.03 0.03 0.03 0.03 0.04 0.05 0.05 0.05 0.07 0.08 0.09 0.08 0.08 0.08 0.07
0.00 0.00 0.00 0.00 0.00 0.00 0.00 0.01 0.01 0.01 0.00 0.00 0.00 0.01 0.01 0.01 0.01 0.01 0.02 0.01 0.02 0.02 0.04 0.02 0.02 0.02 0.02 0.02 0.02 0.03 0.03 0.03 0.02 0.02 0.02 0.03 0.02 0.02 0.03 0.03 0.04 0.05 0.05 0.06 0.08 0.09 0.08 0.07 0.06
0.00 0.00 0.00 0.00 0.00 0.00 0.00 0.00 0.00 0.00 0.00 0.01 0.01 0.02 0.06 0.05 0.02 0.02 0.02 0.02 0.01 0.02 0.03 0.03 0.03 0.03 0.02 0.02 0.02 0.02 0.02 0.02 0.02 0.02 0.03 0.03 0.05 0.05 0.04 0.03 0.04 0.05 0.04 0.06 0.07 0.09 0.11 0.11 0.09
0.00 0.00 0.00 0.00 0.00 0.00 0.00 0.00 0.00 0.00 0.01 0.01 0.01 0.07 0.11 0.05 0.03 0.02 0.02 0.02 0.01 0.02 0.02 0.02 0.03 0.03 0.02 0.02 0.02 0.03 0.03 0.03 0.03 0.03 0.04 0.05 0.06 0.07 0.07 0.07 0.06 0.05 0.05 0.06 0.08 0.07 0.08 0.09 0.10
0.00 0.00 0.00 0.00 0.00 0.00 0.00 0.00 0.00 0.00 0.02 0.02 0.02 0.03 0.03 0.03 0.02 0.03 0.03 0.03 0.03 0.03 0.03 0.03 0.04 0.04 0.03 0.03 0.03 0.03 0.04 0.05 0.05 0.05 0.07 0.09 0.08 0.08 0.08 0.07 0.06 0.05 0.06 0.07 0.08 0.07 0.08 0.07 0.07
0.00 0.00 0.00 0.00 0.00 0.00 0.00 0.00 0.00 0.01 0.02 0.02 0.02 0.03 0.04 0.05 0.05 0.05 0.05 0.07 0.07 0.07 0.05 0.05 0.05 0.06 0.06 0.06 0.06 0.05 0.06 0.07 0.10 0.11 0.10 0.09 0.09 0.09 0.08 0.06 0.04 0.05 0.07 0.08 0.09 0.07 0.07 0.07 0.07
0.00 0.00 0.00 0.01 0.01 0.00 0.00 0.00 0.00 0.01 0.01 0.02 0.02 0.02 0.04 0.08 0.10 0.07 0.07 0.09 0.11 0.10 0.09 0.07 0.06 0.07 0.08 0.08 0.07 0.05 0.06 0.08 0.12 0.15 0.15 0.12 0.12 0.11 0.08 0.05 0.04 0.05 0.07 0.09 0.09 0.08 0.07 0.07 0.07
0.00 0.00 0.00 0.00 0.00 0.00 0.00 0.00 0.01 0.01 0.01 0.01 0.02 0.02 0.03 0.04 0.05 0.06 0.06 0.06 0.07 0.08 0.10 0.12 0.12 0.13 0.11 0.08 0.07 0.06 0.08 0.08 0.10 0.14 0.19 0.17 0.11 0.10 0.07 0.05 0.05 0.05 0.06 0.07 0.09 0.09 0.08 0.07 0.05
0.00 0.00 0.00 0.00 0.00 0.00 0.00 0.00 0.01 0.01 0.01 0.01 0.02 0.02 0.03 0.03 0.02 0.04 0.04 0.06 0.07 0.08 0.08 0.11 0.12 0.11 0.08 0.06 0.06 0.08 0.10 0.10 0.11 0.10 0.12 0.15 0.12 0.09 0.07 0.06 0.06 0.07 0.06 0.07 0.08 0.07 0.07 0.06 0.06
0.00 0.00 0.00 0.00 0.00 0.00 0.00 0.00 0.00 0.01 0.01 0.02 0.02 0.03 0.02 0.02 0.02 0.03 0.04 0.05 0.05 0.06 0.08 0.10 0.11 0.10 0.10 0.08 0.08 0.10 0.12 0.12 0.11 0.09 0.07 0.08 0.09 0.07 0.06 0.05 0.05 0.05 0.04 0.04 0.05 0.05 0.06 0.06 0.06
0.00 0.00 0.00 0.00 0.00 0.00 0.00 0.00 0.00 0.00 0.01 0.02 0.02 0.02 0.02 0.03 0.03 0.04 0.05 0.06 0.07 0.10 0.13 0.14 0.15 0.15 0.13 0.10 0.11 0.12 0.15 0.14 0.10 0.08 0.07 0.06 0.06 0.06 0.05 0.05 0.05 0.06 0.06 0.07 0.06 0.06 0.05 0.05 0.05
0.00 0.00 0.00 0.00 0.00 0.00 0.00 0.00 0.00 0.01 0.01 0.01 0.01 0.01 0.02 0.02 0.02 0.05 0.07 0.08 0.10 0.13 0.16 0.15 0.12 0.11 0.10 0.10 0.11 0.10 0.10 0.11 0.10 0.09 0.07 0.07 0.07 0.06 0.07 0.05 0.06 0.07 0.08 0.07 0.08 0.08 0.06 0.05 0.05
0.00 0.00 0.00 0.00 0.00 0.00 0.00 0.01 0.00 0.00 0.00 0.00 0.01 0.01 0.03 0.04 0.06 0.07 0.08 0.08 0.09 0.09 0.09 0.08 0.08 0.08 0.09 0.09 0.08 0.08 0.08 0.09 0.09 0.07 0.06 0.06 0.07 0.08 0.08 0.09 0.09 0.09 0.08 0.06 0.07 0.09 0.08 0.07 0.05
0.00 0.00 0.00 0.00 0.00 0.00 0.00 0.00 0.00 0.00 0.01 0.01 0.01 0.02 0.03 0.04 0.05 0.04 0.04 0.04 0.05 0.06 0.06 0.05 0.06 0.06 0.07 0.09 0.09 0.07 0.07 0.08 0.09 0.09 0.06 0.04 0.05 0.07 0.10 0.12 0.12 0.11 0.09 0.07 0.09 0.10 0.09 0.08 0.06
0.00 0.00 0.00 0.00 0.00 0.00 0.00 0.01 0.01 0.01 0.01 0.01 0.01 0.02 0.04 0.05 0.04 0.02 0.03 0.04 0.04 0.04 0.04 0.04 0.05 0.05 0.04 0.04 0.05 0.06 0.07 0.07 0.06 0.07 0.07 0.05 0.04 0.06 0.10 0.13 0.12 0.10 0.10 0.10 0.10 0.10 0.07 0.06 0.07
0.00 0.00 0.00 0.00 0.00 0.00 0.00 0.01 0.02 0.01 0.01 0.01 0.02 0.02 0.03 0.03 0.03 0.02 0.02 0.02 0.03 0.03 0.03 0.03 0.02 0.03 0.05 0.04 0.04 0.04 0.05 0.07 0.05 0.04 0.05 0.05 0.04 0.05 0.08 0.11 0.10 0.09 0.07 0.08 0.09 0.09 0.08 0.06 0.05
0.00 0.00 0.00 0.00 0.00 0.00 0.00 0.01 0.01 0.00 0.00 0.00 0.01 0.01 0.02 0.02 0.03 0.03 0.02 0.02 0.02 0.02 0.03 0.03 0.03 0.05 0.07 0.07 0.06 0.06 0.05 0.05 0.06 0.06 0.07 0.06 0.06 0.06 0.08 0.08 0.07 0.07 0.08 0.08 0.05 0.05 0.05 0.04 0.04
0.00 0.00 0.00 0.00 0.00 0.00 0.00 0.01 0.01 0.00 0.00 0.01 0.01 0.01 0.02 0.03 0.04 0.04 0.03 0.03 0.02 0.01 0.02 0.03 0.05 0.07 0.09 0.09 0.06 0.06 0.06 0.05 0.05 0.05 0.05 0.04 0.05 0.05 0.06 0.07 0.05 0.05 0.06 0.05 0.04 0.03 0.03 0.04 0.04
0.00 0.00 0.00 0.00 0.01 0.01 0.01 0.01 0.01 0.01 0.01 0.01 0.01 0.01 0.02 0.03 0.04 0.04 0.03 0.02 0.02 0.01 0.02 0.03 0.04 0.06 0.09 0.09 0.05 0.04 0.06 0.05 0.04 0.04 0.03 0.03 0.04 0.04 0.04 0.05 0.04 0.03 0.03 0.03 0.02 0.02 0.03 0.03 0.04
0.00 0.00 0.00 0.00 0.00 0.01 0.01 0.01 0.01 0.01 0.01 0.01 0.02 0.02 0.02 0.02 0.03 0.04 0.03 0.02 0.02 0.02 0.02 0.03 0.06 0.07 0.08 0.09 0.06 0.04 0.05 0.06 0.05 0.05 0.03 0.03 0.04 0.03 0.03 0.03 0.02 0.02 0.02 0.02 0.02 0.02 0.03 0.03 0.04
0.00 0.00 0.00 0.00 0.00 0.01 0.01 0.01 0.01 0.01 0.01 0.01 0.02 0.02 0.01 0.02 0.03 0.05 0.04 0.03 0.02 0.03 0.04 0.05 0.07 0.09 0.10 0.12 0.12 0.09 0.07 0.06 0.06 0.05 0.05 0.06 0.04 0.03 0.03 0.01 0.01 0.02 0.02 0.02 0.02 0.01 0.01 0.02 0.03
MSLP
1009.40 1010.49 1011.64 1012.68 1013.44 1013.78 1013.64 1013.04 1012.07 1010.86 1009.57 1008.33 1007.23 1006.33 1005.59 1004.99 1004.45 1003.94 1003.43 1002.96 1002.58 1002.34 1002.32 1002.54 1002.97 1003.55 1004.19 1004.80 1005.31 1005.69 1005.95 1006.14 1006.36 1006.67 1007.12 1007.71 1008.41 1009.15 1009.85 1010.42 1010.85 1011.13 1011.29 1011.40 1011.52 1011.68 1011.91 1012.19 1012.49
1009.95 1011.12 1012.27 1013.20 1013.75 1013.83 1013.39 1012.49 1011.25 1009.83 1008.38 1007.06 1005.95 1005.06 1004.38 1003.85 1003.39 1002.97 1002.56 1002.19 1001.92 1001.80 1001.89 1002.20 1002.71 1003.35 1004.05 1004.70 1005.25 1005.68 1006.01 1006.28 1006.57 1006.94 1007.43 1008.02 1008.69 1009.36 1009.98 1010.47 1010.83 1011.06 1011.21 1011.33 1011.46 1011.66 1011.91 1012.19 1012.49
1010.62 1011.81 1012.88 1013.66 1014.00 1013.82 1013.14 1012.03 1010.63 1009.10 1007.62 1006.30 1005.21 1004.37 1003.74 1003.24 1002.81 1002.42 1002.04 1001.72 1001.50 1001.45 1001.61 1001.98 1002.55 1003.23 1003.95 1004.63 1005.21 1005.68 1006.06 1006.39 1006.73 1007.15 1007.65 1008.23 1008.85 1009.46 1010.00 1010.43 1010.74 1010.95 1011.11 1011.27 1011.45 1011.68 1011.96 1012.27 1012.56
1011.31 1012.45 1013.40 1014.00 1014.14 1013.78 1012.95 1011.74 1010.31 1008.82 1007.41 1006.19 1005.20 1004.43 1003.84 1003.35 1002.90 1002.48 1002.07 1001.73 1001.50 1001.46 1001.63 1002.01 1002.58 1003.26 1003.97 1004.64 1005.21 1005.69 1006.08 1006.44 1006.82 1007.25 1007.75 1008.31 1008.89 1009.44 1009.93 1010.32 1010.61 1010.84 1011.04 1011.25 1011.49 1011.78 1012.10 1012.42 1012.72
1011.91 1012.95 1013.76 1014.19 1014.18 1013.70 1012.83 1011.66 1010.33 1009.01 1007.79 1006.76 1005.93 1005.27 1004.71 1004.21 1003.71 1003.21 1002.71 1002.29 1002.00 1001.90 1002.02 1002.36 1002.88 1003.49 1004.14 1004.74 1005.26 1005.70 1006.08 1006.43 1006.81 1007.24 1007.74 1008.27 1008.82 1009.33 1009.79 1010.17 1010.48 1010.74 1011.00 1011.28 1011.59 1011.94 1012.29 1012.63 1012.92
1012.33 1013.25 1013.91 1014.20 1014.09 1013.59 1012.78 1011.76 1010.67 1009.62 1008.69 1007.92 1007.28 1006.74 1006.24 1005.71 1005.14 1004.52 1003.91 1003.37 1002.97 1002.77 1002.79 1003.03 1003.43 1003.93 1004.46 1004.95 1005.38 1005.74 1006.06 1006.38 1006.74 1007.16 1007.64 1008.16 1008.68 1009.18 1009.62 1010.00 1010.34 1010.66 1010.98 1011.32 1011.70 1012.10 1012.48 1012.83 1013.11
1012.55 1013.34 1013.85 1014.04 1013.89 1013.45 1012.79 1012.02 1011.23 1010.52 1009.92 1009.43 1009.01 1008.59 1008.13 1007.58 1006.92 1006.19 1005.46 1004.79 1004.27 1003.95 1003.84 1003.94 1004.20 1004.55 1004.92 1005.26 1005.56 1005.81 1006.06 1006.33 1006.66 1007.05 1007.52 1008.02 1008.53 1009.01 1009.46 1009.85 1010.21 1010.57 1010.94 1011.34 1011.77 1012.20 1012.61 1012.95 1013.23
1012.60 1013.25 1013.65 1013.77 1013.64 1013.30 1012.85 1012.36 1011.90 1011.53 1011.25 1011.02 1010.79 1010.49 1010.07 1009.49 1008.76 1007.94 1007.11 1006.33 1005.71 1005.27 1005.04 1005.00 1005.10 1005.27 1005.47 1005.64 1005.79 1005.93 1006.09 1006.30 1006.59 1006.97 1007.42 1007.91 1008.41 1008.88 1009.32 1009.72 1010.09 1010.47 1010.87 1011.30 1011.75 1012.20 1012.61 1012.96 1013.23
1012.53 1013.06 1013.38 1013.47 1013.39 1013.20 1012.96 1012.74 1012.59 1012.51 1012.50 1012.47 1012.38 1012.16 1011.75 1011.15 1010.38 1009.51 1008.61 1007.78 1007.09 1006.58 1006.25 1006.08 1006.03 1006.03 1006.06 1006.07 1006.07 1006.09 1006.16 1006.32 1006.58 1006.94 1007.38 1007.86 1008.35 1008.81 1009.23 1009.62 1009.99 1010.36 1010.76 1011.18 1011.63 1012.08 1012.49 1012.84 1013.11
1012.43 1012.88 1013.14 1013.24 1013.24 1013.19 1013.14 1013.15 1013.24 1013.38 1013.53 1013.63 1013.60 1013.40 1012.99 1012.38 1011.60 1010.71 1009.82 1008.99 1008.29 1007.74 1007.35 1007.09 1006.91 1006.77 1006.63 1006.49 1006.36 1006.28 1006.27 1006.38 1006.61 1006.95 1007.38 1007.86 1008.34 1008.79 1009.19 1009.55 1009.89 1010.24 1010.61 1011.01 1011.44 1011.87 1012.27 1012.61 1012.89
1012.38 1012.77 1013.02 1013.17 1013.25 1013.33 1013.44 1013.62 1013.84 1014.09 1014.31 1014.44 1014.41 1014.18 1013.75 1013.13 1012.36 1011.51 1010.67 1009.90 1009.24 1008.71 1008.29 1007.96 1007.69 1007.42 1007.15 1006.88 1006.63 1006.46 1006.38 1006.44 1006.65 1006.99 1007.41 1007.88 1008.35 1008.79 1009.17 1009.51 1009.82 1010.13 1010.46 1010.82 1011.22 1011.62 1012.00 1012.34 1012.62
1012.43 1012.81 1013.09 1013.29 1013.47 1013.66 1013.89 1014.16 1014.44 1014.71 1014.90 1014.96 1014.86 1014.57 1014.09 1013.46 1012.73 1011.96 1011.21 1010.53 1009.94 1009.46 1009.05 1008.68 1008.33 1007.96 1007.58 1007.19 1006.85 1006.59 1006.45 1006.47 1006.66 1006.98 1007.40 1007.87 1008.34 1008.77 1009.14 1009.46 1009.75 1010.03 1010.33 1010.66 1011.02 1011.39 1011.76 1012.09 1012.37
1012.62 1013.02 1013.35 1013.63 1013.91 1014.20 1014.50 1014.80 1015.08 1015.29 1015.38 1015.32 1015.10 1014.72 1014.19 1013.55 1012.86 1012.18 1011.53 1010.96 1010.47 1010.04 1009.65 1009.26 1008.84 1008.39 1007.90 1007.42 1006.98 1006.65 1006.45 1006.43 1006.58 1006.88 1007.29 1007.76 1008.23 1008.67 1009.05 1009.39 1009.68 1009.95 1010.24 1010.55 1010.88 1011.22 1011.56 1011.88 1012.16
1012.95 1013.40 1013.79 1014.17 1014.54 1014.91 1015.26 1015.57 1015.79 1015.90 1015.86 1015.65 1015.29 1014.80 1014.21 1013.57 1012.92 1012.32 1011.78 1011.31 1010.89 1010.51 1010.13 1009.71 1009.23 1008.70 1008.13 1007.56 1007.04 1006.62 1006.36 1006.28 1006.39 1006.66 1007.04 1007.50 1007.98 1008.44 1008.86 1009.22 1009.55 1009.86 1010.16 1010.47 1010.79 1011.12 1011.44 1011.74 1012.00
1013.41 1013.90 1014.37 1014.83 1015.29 1015.73 1016.12 1016.42 1016.58 1016.58 1016.39 1016.04 1015.54 1014.95 1014.30 1013.65 1013.04 1012.50 1012.03 1011.63 1011.27 1010.91 1010.51 1010.06 1009.53 1008.92 1008.27 1007.63 1007.03 1006.54 1006.21 1006.06 1006.10 1006.30 1006.64 1007.08 1007.56 1008.04 1008.51 1008.94 1009.33 1009.70 1010.05 1010.39 1010.72 1011.05 1011.35 1011.63 1011.87
1013.95 1014.47 1014.99 1015.53 1016.08 1016.58 1017.01 1017.29 1017.40 1017.29 1016.99 1016.51 1015.89 1015.21 1014.51 1013.85 1013.25 1012.75 1012.32 1011.95 1011.60 1011.24 1010.82 1010.32 1009.73 1009.07 1008.37 1007.66 1007.00 1006.45 1006.03 1005.80 1005.74 1005.86 1006.13 1006.52 1006.98 1007.48 1008.00 1008.50 1008.98 1009.43 1009.85 1010.25 1010.61 1010.94 1011.24 1011.49 1011.71
1014.53 1015.05 1015.61 1016.21 1016.82 1017.38 1017.83 1018.11 1018.17 1017.99 1017.59 1017.01 1016.31 1015.56 1014.82 1014.13 1013.54 1013.04 1012.62 1012.25 1011.88 1011.48 1011.02 1010.49 1009.86 1009.17 1008.43 1007.69 1006.99 1006.38 1005.89 1005.55 1005.39 1005.40 1005.56 1005.87 1006.29 1006.78 1007.33 1007.90 1008.47 1009.01 1009.51 1009.97 1010.38 1010.74 1011.04 1011.28 1011.48
1015.11 1015.59 1016.16 1016.79 1017.44 1018.04 1018.51 1018.79 1018.81 1018.58 1018.11 1017.46 1016.70 1015.90 1015.13 1014.43 1013.82 1013.31 1012.87 1012.46 1012.05 1011.61 1011.11 1010.54 1009.90 1009.20 1008.47 1007.73 1007.02 1006.37 1005.82 1005.38 1005.10 1004.97 1005.01 1005.20 1005.54 1005.99 1006.55 1007.16 1007.79 1008.42 1009.00 1009.53 1010.00 1010.38 1010.70 1010.95 1011.15
1015.63 1016.07 1016.62 1017.26 1017.93 1018.55 1019.03 1019.29 1019.28 1019.00 1018.48 1017.78 1016.98 1016.15 1015.35 1014.64 1014.01 1013.47 1012.99 1012.54 1012.08 1011.59 1011.05 1010.47 1009.83 1009.16 1008.47 1007.77 1007.08 1006.42 1005.82 1005.31 1004.90 1004.63 1004.51 1004.56 1004.79 1005.17 1005.69 1006.31 1006.98 1007.67 1008.32 1008.92 1009.43 1009.86 1010.21 1010.48 1010.69
1016.09 1016.46 1016.98 1017.62 1018.29 1018.91 1019.37 1019.60 1019.56 1019.23 1018.66 1017.92 1017.09 1016.23 1015.43 1014.69 1014.05 1013.47 1012.95 1012.44 1011.93 1011.40 1010.84 1010.25 1009.65 1009.03 1008.40 1007.77 1007.13 1006.50 1005.88 1005.30 1004.78 1004.37 1004.10 1004.00 1004.08 1004.36 1004.81 1005.40 1006.08 1006.80 1007.50 1008.15 1008.71 1009.19 1009.57 1009.88 1010.13
1016.47 1016.80 1017.30 1017.92 1018.58 1019.17 1019.60 1019.77 1019.66 1019.27 1018.65 1017.87 1017.00 1016.14 1015.32 1014.57 1013.91 1013.31 1012.74 1012.18 1011.62 1011.05 1010.47 1009.89 1009.32 1008.76 1008.22 1007.67 1007.11 1006.52 1005.90 1005.28 1004.68 1004.15 1003.74 1003.49 1003.44 1003.60 1003.96 1004.49 1005.15 1005.87 1006.60 1007.28 1007.89 1008.40 1008.83 1009.18 1009.48
1016.83 1017.13 1017.63 1018.24 1018.87 1019.42 1019.77 1019.87 1019.67 1019.20 1018.51 1017.67 1016.78 1015.90 1015.07 1014.32 1013.65 1013.02 1012.41 1011.80 1011.19 1010.57 1009.97 1009.39 1008.85 1008.35 1007.87 1007.41 1006.92 1006.38 1005.79 1005.16 1004.51 1003.89 1003.37 1003.00 1002.83 1002.88 1003.15 1003.62 1004.24 1004.94 1005.67 1006.38 1007.02 1007.58 1008.05 1008.44 1008.79
1017.21 1017.53 1018.04 1018.64 1019.24 1019.72 1019.99 1019.98 1019.67 1019.10 1018.32 1017.43 1016.50 1015.60 1014.77 1014.01 1013.32 1012.67 1012.02 1011.37 1010.70 1010.03 1009.38 1008.78 1008.24 1007.76 1007.34 1006.92 1006.49 1006.01 1005.46 1004.83 1004.17 1003.51 1002.93 1002.48 1002.22 1002.19 1002.38 1002.80 1003.38 1004.06 1004.79 1005.51 1006.17 1006.76 1007.27 1007.71 1008.10
1017.69 1018.06 1018.59 1019.18 1019.74 1020.14 1020.29 1020.16 1019.73 1019.03 1018.17 1017.21 1016.23 1015.31 1014.47 1013.71 1013.01 1012.33 1011.65 1010.94 1010.21 1009.47 1008.76 1008.10 1007.53 1007.03 1006.61 1006.21 1005.81 1005.36 1004.84 1004.24 1003.59 1002.93 1002.33 1001.86 1001.56 1001.49 1001.65 1002.03 1002.59 1003.26 1003.99 1004.72 1005.41 1006.02 1006.55 1007.02 1007.43
1018.30 1018.73 1019.29 1019.87 1020.37 1020.67 1020.70 1020.43 1019.86 1019.05 1018.08 1017.05 1016.04 1015.09 1014.24 1013.47 1012.75 1012.05 1011.32 1010.56 1009.75 1008.94 1008.14 1007.41 1006.76 1006.20 1005.73 1005.31 1004.89 1004.45 1003.95 1003.37 1002.75 1002.13 1001.56 1001.11 1000.83 1000.77 1000.94 1001.32 1001.88 1002.56 1003.30 1004.05 1004.75 1005.38 1005.94 1006.41 1006.83
1019.07 1019.56 1020.13 1020.68 1021.09 1021.28 1021.18 1020.77 1020.07 1019.14 1018.08 1016.99 1015.93 1014.96 1014.08 1013.30 1012.56 1011.82 1011.05 1010.23 1009.35 1008.45 1007.56 1006.73 1005.98 1005.33 1004.77 1004.27 1003.81 1003.34 1002.83 1002.27 1001.69 1001.12 1000.61 1000.23 1000.02 1000.01 1000.23 1000.66 1001.26 1001.97 1002.74 1003.51 1004.23 1004.88 1005.45 1005.93 1006.34
1019.95 1020.47 1021.02 1021.51 1021.83 1021.90 1021.66 1021.11 1020.29 1019.27 1018.13 1016.98 1015.89 1014.89 1013.99 1013.18 1012.41 1011.64 1010.82 1009.95 1009.00 1008.03 1007.05 1006.11 1005.25 1004.48 1003.81 1003.21 1002.66 1002.12 1001.58 1001.02 1000.47 999.96 999.53 999.24 999.13 999.23 999.54 1000.05 1000.71 1001.48 1002.30 1003.11 1003.86 1004.54 1005.11 1005.59 1005.99
1020.86 1021.36 1021.87 1022.27 1022.48 1022.42 1022.05 1021.39 1020.47 1019.37 1018.18 1016.99 1015.87 1014.84 1013.91 1013.07 1012.27 1011.46 1010.60 1009.68 1008.69 1007.65 1006.60 1005.58 1004.62 1003.74 1002.94 1002.22 1001.55 1000.91 1000.30 999.72 999.19 998.73 998.38 998.20 998.21 998.43 998.87 999.49 1000.25 1001.10 1001.99 1002.85 1003.65 1004.35 1004.94 1005.42 1005.81
1021.68 1022.14 1022.55 1022.84 1022.93 1022.75 1022.28 1021.53 1020.55 1019.40 1018.19 1016.98 1015.83 1014.78 1013.82 1012.94 1012.09 1011.24 1010.35 1009.40 1008.38 1007.32 1006.23 1005.16 1004.12 1003.13 1002.22 1001.36 1000.56 999.81 999.11 998.47 997.92 997.50 997.24 997.16 997.31 997.67 998.24 999.00 999.88 1000.83 1001.80 1002.74 1003.59 1004.33 1004.95 1005.45 1005.83
1022.32 1022.69 1023.00 1023.17 1023.14 1022.85 1022.30 1021.50 1020.49 1019.34 1018.13 1016.92 1015.76 1014.68 1013.69 1012.76 1011.87 1010.99 1010.07 1009.10 1008.09 1007.02 1005.93 1004.83 1003.75 1002.69 1001.66 1000.67 999.73 998.85 998.04 997.32 996.75 996.34 996.15 996.18 996.46 996.97 997.69 998.59 999.61 1000.68 1001.74 1002.75 1003.67 1004.46 1005.12 1005.64 1006.05
Thickness
5801 5801 5799 5791 5773 5754 5753 5767 5779 5786 5794 5806 5810 5806 5798 5792 5785 5782 5808 5816 5814 5809 5805 5799 5793 5789 5785 5782 5779 5776 5773 5771 5768 5765 5763 5760 5757 5754 5751 5749 5747 5744 5742 5741 5739 5737 5736 5735 5734
5801 5800 5793 5779 5758 5741 5753 5773 5779 5790 5802 5809 5810 5807 5800 5798 5806 5805 5809 5812 5812 5808 5804 5798 5793 5788 5784 5780 5777 5774 5770 5768 5765 5762 5759 5757 5754 5751 5748 5746 5743 5741 5739 5738 5736 5734 5733 5732 5731
5801 5799 5782 5766 5752 5746 5761 5780 5787 5799 5808 5808 5804 5806 5801 5799 5807 5808 5812 5812 5809 5805 5801 5796 5791 5787 5783 5779 5775 5771 5768 5765 5762 5759 5756 5753 5751 5748 5745 5742 5740 5738 5736 5734 5733 5731 5730 5729 5728
5797 5787 5776 5760 5757 5764 5773 5786 5794 5796 5803 5808 5804 5797 5803 5810 5811 5812 5814 5811 5805 5801 5797 5793 5789 5784 5781 5777 5773 5770 5766 5762 5759 5756 5753 5750 5747 5744 5742 5739 5737 5735 5733 5731 5729 5728 5726 5725 5725
5792 5777 5761 5750 5758 5771 5783 5792 5797 5794 5796 5802 5801 5792 5796 5808 5813 5812 5810 5807 5802 5798 5795 5790 5786 5782 5779 5775 5772 5768 5764 5760 5757 5754 5750 5747 5744 5741 5739 5736 5734 5732 5729 5727 5726 5724 5722 5721 5721
5777 5768 5748 5745 5759 5776 5788 5796 5797 5793 5793 5798 5796 5790 5793 5805 5806 5806 5806 5803 5800 5794 5791 5787 5783 5779 5776 5773 5769 5765 5761 5758 5755 5751 5747 5744 5741 5738 5736 5733 5731 5729 5727 5724 5723 5721 5719 5717 5717
5772 5760 5751 5754 5758 5771 5788 5798 5793 5789 5787 5793 5798 5787 5790 5798 5801 5802 5801 5798 5794 5790 5786 5782 5778 5775 5772 5769 5766 5762 5758 5755 5752 5749 5745 5741 5738 5736 5733 5730 5728 5726 5724 5722 5720 5719 5717 5715 5713
5779 5763 5756 5753 5759 5770 5789 5794 5796 5791 5790 5801 5799 5783 5782 5794 5798 5797 5794 5790 5787 5783 5780 5777 5774 5771 5768 5765 5762 5758 5755 5752 5749 5747 5743 5739 5735 5733 5730 5727 5725 5723 5721 5719 5718 5716 5715 5713 5711
5783 5756 5748 5758 5764 5773 5787 5787 5793 5799 5794 5795 5796 5792 5794 5796 5794 5790 5785 5782 5779 5777 5774 5772 5769 5767 5764 5761 5758 5755 5751 5748 5745 5743 5740 5736 5733 5730 5727 5725 5722 5720 5718 5716 5715 5713 5712 5710 5709
5772 5751 5760 5773 5777 5779 5783 5784 5787 5787 5783 5784 5786 5789 5792 5790 5786 5781 5777 5774 5772 5770 5769 5768 5765 5762 5759 5756 5753 5750 5747 5744 5741 5738 5735 5733 5730 5726 5723 5721 5719 5717 5715 5713 5711 5710 5709 5707 5706
5773 5764 5772 5780 5785 5784 5781 5783 5786 5780 5772 5778 5778 5780 5783 5781 5778 5775 5773 5771 5769 5767 5765 5764 5762 5758 5754 5751 5749 5745 5742 5739 5736 5733 5730 5727 5725 5722 5719 5717 5715 5713 5711 5710 5708 5707 5705 5704 5703
5772 5775 5779 5782 5788 5784 5781 5780 5778 5776 5775 5784 5783 5780 5777 5774 5771 5770 5768 5766 5765 5762 5761 5760 5757 5754 5750 5747 5744 5740 5738 5734 5731 5728 5726 5723 5721 5719 5716 5713 5711 5709 5707 5705 5704 5702 5701 5700 5699
5772 5775 5782 5785 5784 5782 5780 5775 5772 5769 5777 5781 5780 5775 5771 5768 5766 5766 5765 5762 5759 5756 5755 5754 5752 5749 5745 5742 5739 5736 5733 5730 5726 5723 5721 5718 5716 5713 5711 5709 5706 5704 5703 5701 5700 5698 5697 5696 5695
5777 5777 5778 5780 5781 5780 5773 5768 5766 5764 5772 5773 5770 5766 5763 5760 5759 5758 5757 5755 5753 5751 5748 5747 5745 5743 5740 5736 5733 5730 5728 5725 5721 5718 5716 5714 5712 5709 5707 5705 5703 5701 5699 5697 5695 5694 5693 5692 5691
5778 5771 5771 5774 5776 5774 5770 5755 5755 5761 5765 5762 5760 5758 5756 5754 5754 5752 5751 5750 5748 5745 5743 5740 5739 5736 5733 5731 5728 5725 5723 5719 5716 5714 5711 5709 5707 5705 5703 5701 5699 5697 5695 5693 5691 5690 5689 5688 5687
5771 5759 5751 5764 5769 5768 5759 5736 5749 5757 5756 5751 5750 5749 5747 5745 5746 5746 5746 5745 5743 5741 5737 5735 5733 5729 5726 5723 5721 5719 5717 5714 5711 5709 5706 5704 5702 5700 5698 5695 5693 5692 5690 5688 5687 5685 5684 5683 5682
5750 5741 5743 5752 5762 5760 5750 5735 5744 5750 5748 5743 5741 5740 5739 5738 5739 5739 5739 5738 5736 5734 5730 5727 5725 5722 5719 5716 5714 5712 5710 5707 5705 5703 5701 5699 5697 5695 5692 5690 5687 5685 5684 5683 5682 5681 5679 5678 5678
5739 5739 5739 5739 5749 5747 5736 5731 5737 5741 5740 5735 5733 5732 5730 5730 5729 5731 5731 5730 5729 5726 5724 5720 5719 5715 5712 5709 5707 5704 5702 5700 5698 5696 5695 5694 5692 5689 5686 5684 5682 5680 5678 5677 5676 5674 5674 5673 5673
5748 5740 5734 5737 5745 5736 5727 5724 5728 5732 5731 5728 5725 5724 5723 5722 5724 5724 5723 5722 5720 5718 5715 5712 5709 5707 5704 5701 5699 5696 5694 5692 5690 5689 5689 5688 5686 5683 5681 5679 5677 5675 5673 5671 5671 5669 5667 5667 5667
5744 5735 5731 5733 5740 5730 5720 5718 5723 5725 5723 5722 5719 5717 5716 5716 5715 5715 5714 5713 5711 5709 5706 5704 5701 5700 5697 5695 5693 5690 5688 5685 5684 5682 5682 5681 5680 5678 5677 5674 5672 5670 5667 5666 5665 5663 5661 5660 5660
5741 5735 5731 5726 5728 5725 5717 5708 5712 5717 5718 5717 5715 5712 5711 5710 5707 5706 5706 5704 5703 5700 5698 5698 5695 5693 5691 5689 5685 5683 5680 5679 5677 5676 5675 5675 5674 5673 5671 5669 5666 5664 5662 5660 5659 5658 5656 5654 5654
5732 5743 5738 5729 5713 5701 5707 5688 5700 5703 5705 5707 5706 5704 5703 5702 5701 5699 5698 5697 5695 5693 5692 5690 5688 5685 5683 5681 5677 5673 5670 5668 5669 5669 5669 5669 5668 5667 5666 5664 5661 5659 5657 5655 5654 5652 5651 5649 5648
5738 5740 5733 5724 5710 5696 5695 5684 5687 5695 5693 5696 5698 5698 5698 5697 5695 5692 5691 5690 5689 5687 5684 5682 5680 5677 5675 5674 5671 5667 5664 5663 5662 5663 5662 5662 5661 5661 5660 5658 5656 5654 5652 5651 5649 5647 5646 5644 5643
5737 5728 5719 5704 5694 5682 5688 5679 5677 5682 5687 5690 5692 5693 5692 5691 5689 5687 5686 5684 5682 5680 5677 5675 5672 5670 5668 5666 5664 5662 5659 5657 5656 5656 5655 5655 5654 5654 5654 5653 5651 5649 5648 5646 5644 5643 5641 5640 5639
5721 5702 5683 5678 5669 5672 5683 5676 5674 5688 5690 5688 5686 5687 5686 5685 5682 5680 5678 5676 5674 5672 5670 5667 5665 5663 5662 5661 5659 5656 5654 5652 5651 5651 5650 5649 5649 5648 5648 5647 5646 5645 5643 5642 5640 5638 5636 5636 5634
5710 5698 5675 5663 5658 5663 5673 5669 5677 5688 5688 5686 5684 5682 5681 5678 5676 5673 5671 5668 5666 5665 5663 5660 5659 5657 5657 5655 5654 5653 5650 5648 5647 5646 5646 5645 5645 5644 5644 5643 5642 5640 5639 5637 5635 5633 5632 5631 5631
5702 5688 5685 5667 5660 5652 5658 5669 5678 5684 5681 5678 5676 5674 5671 5670 5668 5666 5664 5662 5660 5658 5656 5654 5652 5652 5651 5650 5649 5649 5647 5645 5643 5642 5641 5641 5641 5640 5641 5639 5637 5635 5634 5632 5630 5628 5627 5627 5626
5700 5686 5670 5659 5648 5641 5650 5656 5658 5667 5667 5668 5666 5665 5663 5662 5661 5659 5657 5655 5654 5652 5650 5648 5647 5646 5646 5645 5644 5644 5642 5641 5640 5638 5637 5637 5636 5637 5636 5635 5633 5631 5629 5627 5625 5624 5623 5622 5622
5688 5678 5662 5648 5645 5636 5632 5646 5668 5664 5663 5659 5659 5658 5657 5655 5653 5652 5650 5649 5648 5646 5644 5643 5642 5641 5641 5640 5639 5638 5637 5635 5634 5633 5633 5632 5632 5632 5631 5630 5628 5626 5624 5623 5621 5620 5619 5618 5616
5686 5675 5662 5650 5642 5635 5629 5641 5670 5663 5661 5657 5655 5654 5652 5650 5648 5646 5644 5642 5641 5640 5639 5638 5636 5635 5636 5636 5635 5634 5633 5631 5629 5629 5629 5629 5628 5628 5627 5626 5624 5622 5621 5619 5617 5616 5615 5613 5612